Location: Plum
(40.5000°N, 79.7500°W)
Time: 23:11:32
(UTC-04:00)

MOZ.5/SAFIR/RUBIN 5/SL-8 - Visible Passes

Search period start: 19 April 2014 00:00
Search period end: 29 April 2014 00:00
Orbit: 681 x 709 km, 97.8° (Epoch: 19 April)

Date Brightness Start Highest point End Pass type
(mag) Time Alt. Az. Time Alt. Az. Time Alt. Az.
19 Apr 7.4 05:40:25 10° E 05:42:23 13° ENE 05:44:21 10° NE visible
19 Apr 6.2 20:51:29 10° N 20:55:29 28° WNW 20:59:26 10° SW visible
20 Apr 7.4 21:33:53 10° NW 21:35:29 12° WNW 21:37:05 10° W visible
21 Apr 5.4 20:34:30 10° N 20:38:53 40° WNW 20:43:14 10° SW visible
22 Apr 7.0 06:02:20 10° ESE 06:05:52 21° ENE 06:09:24 10° NNE visible
22 Apr 7.0 21:16:03 10° NNW 21:19:00 17° WNW 21:21:55 10° WSW visible
24 Apr 7.3 05:46:43 10° E 05:49:21 15° ENE 05:51:58 10° NNE visible
24 Apr 6.5 20:58:45 10° NNW 21:02:27 24° WNW 21:06:07 10° WSW visible
26 Apr 7.7 05:32:21 10° ENE 05:32:52 10° ENE 05:33:23 10° NE visible
26 Apr 5.9 20:41:40 10° N 20:45:52 33° WNW 20:50:01 10° SW visible
27 Apr 7.1 21:23:32 10° NNW 21:25:55 14° WNW 21:28:17 10° W visible
